TimeCST,TemperatureF,Dew PointF,Humidity,Sea Level PressureIn,VisibilityMPH,Wind Direction,Wind SpeedMPH,Gust SpeedMPH,PrecipitationIn,Events,Conditions,WindDirDegrees,DateUTC
12:15 AM,50.0,42.8,76,29.96,10.0,South,6.9,-,N/A,,Overcast,190,2013-02-08 06:15:00
12:35 AM,50.0,42.8,76,29.96,10.0,SSW,5.8,-,N/A,,Overcast,200,2013-02-08 06:35:00
12:55 AM,48.2,42.8,82,29.96,10.0,SSW,5.8,-,N/A,,Overcast,200,2013-02-08 06:55:00
1:15 AM,48.2,42.8,82,29.94,10.0,SSE,4.6,-,N/A,,Overcast,150,2013-02-08 07:15:00
1:35 AM,48.2,42.8,82,29.92,10.0,SSE,8.1,-,N/A,,Mostly Cloudy,150,2013-02-08 07:35:00
1:55 AM,48.2,42.8,82,29.92,10.0,SSE,5.8,-,N/A,,Scattered Clouds,150,2013-02-08 07:55:00
2:15 AM,46.4,42.8,87,29.91,10.0,SE,10.4,-,N/A,,Clear,140,2013-02-08 08:15:00
2:35 AM,46.4,42.8,87,29.91,10.0,SSE,6.9,-,N/A,,Scattered Clouds,150,2013-02-08 08:35:00
2:55 AM,48.2,42.8,82,29.91,10.0,SSE,8.1,-,N/A,,Mostly Cloudy,160,2013-02-08 08:55:00
3:15 AM,46.4,42.8,87,29.91,10.0,SSE,4.6,-,N/A,,Scattered Clouds,160,2013-02-08 09:15:00
3:35 AM,44.6,41.0,87,29.92,10.0,SW,4.6,-,N/A,,Clear,220,2013-02-08 09:35:00
3:55 AM,44.6,42.8,93,29.94,10.0,SW,5.8,-,N/A,,Scattered Clouds,230,2013-02-08 09:55:00
4:15 AM,46.4,42.8,87,29.95,10.0,SW,10.4,-,N/A,,Overcast,220,2013-02-08 10:15:00
4:35 AM,46.4,42.8,87,29.94,10.0,South,5.8,-,N/A,,Overcast,170,2013-02-08 10:35:00
4:55 AM,46.4,42.8,87,29.95,10.0,South,4.6,-,N/A,,Overcast,170,2013-02-08 10:55:00
5:15 AM,46.4,42.8,87,30.00,10.0,WNW,10.4,16.1,N/A,,Drizzle,300,2013-02-08 11:15:00
5:35 AM,46.4,42.8,87,29.98,5.0,SW,4.6,-,0.02,Rain,Rain,230,2013-02-08 11:35:00
5:55 AM,46.4,42.8,87,29.97,5.0,Calm,Calm,-,0.03,Rain,Rain,0,2013-02-08 11:55:00
6:15 AM,46.4,42.8,87,29.97,5.0,SE,3.5,-,0.01,Rain,Light Rain,140,2013-02-08 12:15:00
6:35 AM,46.4,44.6,93,29.98,4.0,South,3.5,-,0.02,Rain,Rain,170,2013-02-08 12:35:00
6:55 AM,46.4,44.6,93,29.99,4.0,Calm,Calm,-,0.02,Rain,Rain,0,2013-02-08 12:55:00
7:15 AM,46.4,44.6,93,30.00,3.0,Calm,Calm,-,0.01,Rain,Rain,0,2013-02-08 13:15:00
7:35 AM,46.4,44.6,93,30.01,1.5,Calm,Calm,-,0.02,Rain,Rain,0,2013-02-08 13:35:00
7:55 AM,46.4,44.6,93,30.02,1.5,Calm,Calm,-,0.02,Rain,Rain,0,2013-02-08 13:55:00
8:15 AM,46.4,44.6,93,30.03,1.5,NNW,4.6,-,N/A,,Overcast,340,2013-02-08 14:15:00
8:35 AM,46.4,44.6,93,30.04,1.0,NNW,5.8,-,N/A,Rain,Light Rain,340,2013-02-08 14:35:00
8:55 AM,46.4,44.6,93,30.05,1.2,NNW,4.6,-,N/A,,Drizzle,340,2013-02-08 14:55:00
9:15 AM,46.4,44.6,93,30.06,2.0,NNW,5.8,-,N/A,,Drizzle,340,2013-02-08 15:15:00
9:35 AM,46.4,44.6,93,30.07,7.0,North,16.1,21.9,N/A,,Overcast,350,2013-02-08 15:35:00
9:55 AM,46.4,44.6,93,30.09,10.0,North,12.7,19.6,N/A,,Overcast,360,2013-02-08 15:55:00
10:15 AM,46.4,41.0,81,30.09,10.0,North,16.1,20.7,N/A,Rain,Rain,360,2013-02-08 16:15:00
10:35 AM,46.4,42.8,87,30.10,10.0,North,15.0,19.6,N/A,,Mostly Cloudy,360,2013-02-08 16:35:00
10:55 AM,46.4,41.0,81,30.10,10.0,North,16.1,21.9,N/A,,Mostly Cloudy,350,2013-02-08 16:55:00
11:15 AM,46.4,39.2,76,30.11,10.0,North,12.7,-,N/A,,Mostly Cloudy,350,2013-02-08 17:15:00
11:35 AM,46.4,41.0,81,30.12,10.0,North,12.7,17.3,N/A,,Overcast,350,2013-02-08 17:35:00
11:55 AM,44.6,37.4,76,30.12,10.0,North,16.1,24.2,N/A,,Overcast,350,2013-02-08 17:55:00
12:15 PM,44.6,35.6,71,30.14,10.0,NNE,11.5,23.0,N/A,,Overcast,20,2013-02-08 18:15:00
12:35 PM,44.6,35.6,71,30.14,10.0,North,12.7,18.4,N/A,,Overcast,360,2013-02-08 18:35:00
12:55 PM,42.8,35.6,76,30.15,10.0,North,18.4,-,N/A,,Overcast,350,2013-02-08 18:55:00
1:15 PM,44.6,33.8,66,30.15,10.0,North,9.2,20.7,N/A,,Overcast,10,2013-02-08 19:15:00
1:35 PM,44.6,33.8,66,30.16,10.0,North,10.4,16.1,N/A,,Mostly Cloudy,360,2013-02-08 19:35:00
1:55 PM,44.6,33.8,66,30.16,10.0,North,17.3,-,N/A,,Mostly Cloudy,350,2013-02-08 19:55:00
2:15 PM,44.6,32.0,61,30.17,10.0,North,16.1,21.9,N/A,,Mostly Cloudy,350,2013-02-08 20:15:00
2:35 PM,44.6,32.0,61,30.17,10.0,North,17.3,-,N/A,,Mostly Cloudy,350,2013-02-08 20:35:00
2:55 PM,42.8,32.0,66,30.17,10.0,NNW,19.6,-,N/A,,Mostly Cloudy,340,2013-02-08 20:55:00
3:15 PM,42.8,32.0,66,30.18,10.0,North,12.7,21.9,N/A,,Mostly Cloudy,360,2013-02-08 21:15:00
3:35 PM,42.8,32.0,66,30.18,10.0,NNW,12.7,-,N/A,,Mostly Cloudy,340,2013-02-08 21:35:00
3:55 PM,42.8,32.0,66,30.19,10.0,North,13.8,-,N/A,,Mostly Cloudy,350,2013-02-08 21:55:00
4:15 PM,41.0,32.0,70,30.19,10.0,North,11.5,-,N/A,,Mostly Cloudy,10,2013-02-08 22:15:00
4:35 PM,41.0,30.2,65,30.20,10.0,North,8.1,17.3,N/A,,Mostly Cloudy,360,2013-02-08 22:35:00
4:55 PM,41.0,30.2,65,30.20,10.0,NNE,8.1,-,N/A,,Scattered Clouds,20,2013-02-08 22:55:00
5:15 PM,41.0,30.2,65,30.21,10.0,North,10.4,-,N/A,,Scattered Clouds,360,2013-02-08 23:15:00
5:35 PM,41.0,30.2,65,30.21,10.0,North,9.2,-,N/A,,Mostly Cloudy,350,2013-02-08 23:35:00
5:55 PM,39.2,30.2,70,30.22,10.0,North,8.1,-,N/A,,Mostly Cloudy,360,2013-02-08 23:55:00
6:15 PM,39.2,28.4,65,30.22,10.0,North,5.8,-,N/A,,Mostly Cloudy,10,2013-02-09 00:15:00
6:35 PM,37.4,28.4,70,30.23,10.0,North,9.2,-,N/A,,Mostly Cloudy,10,2013-02-09 00:35:00
6:55 PM,39.2,28.4,65,30.24,10.0,North,9.2,16.1,N/A,,Mostly Cloudy,360,2013-02-09 00:55:00
7:15 PM,41.0,28.4,61,30.27,10.0,North,11.5,19.6,N/A,,Overcast,360,2013-02-09 01:15:00
7:35 PM,41.0,28.4,61,30.27,10.0,North,16.1,-,N/A,,Mostly Cloudy,360,2013-02-09 01:35:00
7:55 PM,39.2,28.4,65,30.27,10.0,North,12.7,19.6,N/A,,Mostly Cloudy,360,2013-02-09 01:55:00
8:15 PM,39.2,28.4,65,30.27,10.0,North,11.5,-,N/A,,Mostly Cloudy,360,2013-02-09 02:15:00
8:35 PM,37.4,28.4,70,30.27,10.0,North,10.4,19.6,N/A,,Mostly Cloudy,10,2013-02-09 02:35:00
8:55 PM,37.4,28.4,70,30.25,10.0,NNE,10.4,19.6,N/A,,Mostly Cloudy,30,2013-02-09 02:55:00
9:15 PM,37.4,28.4,70,30.24,10.0,North,6.9,-,N/A,,Mostly Cloudy,10,2013-02-09 03:15:00
9:35 PM,37.4,28.4,70,30.24,10.0,NNE,8.1,-,N/A,,Scattered Clouds,30,2013-02-09 03:35:00
9:55 PM,35.6,28.4,75,30.24,10.0,NNE,8.1,-,N/A,,Clear,20,2013-02-09 03:55:00
10:15 PM,35.6,28.4,75,30.24,10.0,North,4.6,-,N/A,,Scattered Clouds,360,2013-02-09 04:15:00
10:35 PM,35.6,28.4,75,30.25,10.0,North,8.1,-,N/A,,Mostly Cloudy,360,2013-02-09 04:35:00
10:55 PM,35.6,28.4,75,30.26,10.0,North,5.8,-,N/A,,Mostly Cloudy,10,2013-02-09 04:55:00
11:15 PM,33.8,28.4,81,30.27,10.0,North,4.6,-,N/A,,Mostly Cloudy,360,2013-02-09 05:15:00
11:35 PM,35.6,28.4,75,30.28,10.0,North,5.8,-,N/A,,Mostly Cloudy,350,2013-02-09 05:35:00
11:55 PM,35.6,28.4,75,30.26,10.0,NNE,4.6,-,N/A,,Overcast,20,2013-02-09 05:55:00